• In Uzbekistan
  • List of Countries
  • For 7 days
  • Water Temperature
  • Satellite Maps
  • Weather Map
  • Weather Widgets
  • user-avatar
    Login

    Hourly Weather Rawson

    Today, 23 March, Thursday

    Time Temperature Precipitation Wind Pressure Humidity
    00:00 +23°C° 0 mm 7 mps 758 mmHg 45%
    01:00 +23°C° 0 mm 7 mps 758 mmHg 41%
    02:00 +23°C° 0 mm 8 mps 757 mmHg 40%
    03:00 +23°C° 0 mm 7 mps 757 mmHg 40%
    04:00 +23°C° 0 mm 7 mps 757 mmHg 40%
    05:00 +22°C° 0 mm 7 mps 756 mmHg 39%
    06:00 +23°C° 0 mm 7 mps 756 mmHg 37%
    07:00 +23°C° 0 mm 6 mps 756 mmHg 35%
    08:00 +24°C° 0 mm 6 mps 756 mmHg 33%
    09:00 +27°C° 0 mm 6 mps 756 mmHg 27%
    10:00 +29°C° 0 mm 5 mps 756 mmHg 22%
    11:00 +32°C° 0 mm 4 mps 756 mmHg 16%
    12:00 +32°C° 0 mm 5 mps 756 mmHg 15%
    13:00 +32°C° 0 mm 5 mps 756 mmHg 14%
    14:00 +33°C° 0 mm 5 mps 756 mmHg 13%
    15:00 +30°C° 0 mm 5 mps 756 mmHg 18%
    16:00 +28°C° 0 mm 6 mps 756 mmHg 23%
    17:00 +26°C° 0 mm 7 mps 756 mmHg 27%
    18:00 +24°C° 0 mm 6 mps 756 mmHg 34%
    19:00 +22°C° 0 mm 6 mps 757 mmHg 41%
    20:00 +20°C° 0 mm 6 mps 757 mmHg 48%
    21:00 +20°C° 0 mm 5 mps 757 mmHg 51%
    22:00 +19°C° 0 mm 5 mps 758 mmHg 54%
    23:00 +19°C° 0 mm 4 mps 758 mmHg 56%

    Tomorrow, 24 March, Friday

    Time Temperature Precipitation Wind Pressure Humidity
    00:00 +18°C° 0 mm 4 mps 758 mmHg 60%
    01:00 +18°C° 0 mm 3 mps 758 mmHg 63%
    02:00 +17°C° 0 mm 3 mps 758 mmHg 67%
    03:00 +17°C° 0 mm 3 mps 758 mmHg 70%
    04:00 +17°C° 0 mm 3 mps 758 mmHg 73%
    05:00 +16°C° 0 mm 3 mps 758 mmHg 76%
    06:00 +17°C° 0 mm 3 mps 758 mmHg 74%
    07:00 +18°C° 0 mm 3 mps 758 mmHg 72%
    08:00 +18°C° 0 mm 3 mps 759 mmHg 70%
    09:00 +20°C° 0 mm 4 mps 759 mmHg 60%
    10:00 +22°C° 0 mm 5 mps 758 mmHg 49%
    11:00 +25°C° 0 mm 5 mps 758 mmHg 39%
    12:00 +26°C° 0 mm 6 mps 758 mmHg 37%
    13:00 +27°C° 0 mm 6 mps 758 mmHg 34%
    14:00 +27°C° 0 mm 7 mps 757 mmHg 32%
    15:00 +26°C° 0 mm 7 mps 757 mmHg 36%
    16:00 +26°C° 0 mm 7 mps 757 mmHg 41%
    17:00 +24°C° 0 mm 7 mps 756 mmHg 45%
    18:00 +22°C° 0 mm 6 mps 756 mmHg 55%
    19:00 +21°C° 0 mm 6 mps 756 mmHg 65%
    20:00 +19°C° 0 mm 6 mps 757 mmHg 75%
    21:00 +19°C° 0 mm 6 mps 756 mmHg 80%
    22:00 +19°C° 0 mm 5 mps 756 mmHg 86%
    23:00 +17°C° 0 mm 5 mps 756 mmHg 91%

    Day after tomorrow, 25 March, Saturday

    Time Temperature Precipitation Wind Pressure Humidity
    00:00 +18°C° 0 mm 4 mps 756 mmHg 93%
    01:00 +18°C° 0 mm 4 mps 756 mmHg 95%
    02:00 +18°C° 0 mm 3 mps 755 mmHg 97%
    03:00 +18°C° 0 mm 3 mps 755 mmHg 96%
    04:00 +18°C° 0 mm 2 mps 755 mmHg 96%
    05:00 +18°C° 0 mm 2 mps 755 mmHg 96%
    06:00 +19°C° 0 mm 2 mps 755 mmHg 90%
    07:00 +19°C° 0 mm 2 mps 755 mmHg 85%
    08:00 +20°C° 0 mm 2 mps 755 mmHg 79%
    09:00 +24°C° 0 mm 2 mps 755 mmHg 66%
    10:00 +26°C° 0 mm 2 mps 755 mmHg 53%
    11:00 +28°C° 0 mm 2 mps 755 mmHg 41%
    12:00 +29°C° 0.1 mm 2 mps 755 mmHg 36%
    13:00 +30°C° 0.1 mm 3 mps 755 mmHg 31%
    14:00 +33°C° 0.1 mm 3 mps 755 mmHg 26%
    15:00 +32°C° 0.4 mm 4 mps 754 mmHg 28%
    16:00 +32°C° 0.4 mm 4 mps 754 mmHg 31%
    17:00 +30°C° 0.4 mm 4 mps 754 mmHg 33%
    18:00 +28°C° 1.3 mm 5 mps 754 mmHg 43%
    19:00 +26°C° 1.3 mm 5 mps 754 mmHg 53%
    20:00 +25°C° 1.3 mm 5 mps 755 mmHg 63%
    21:00 +24°C° 1.3 mm 6 mps 755 mmHg 62%
    22:00 +24°C° 1.3 mm 6 mps 755 mmHg 61%
    23:00 +24°C° 1.3 mm 7 mps 755 mmHg 60%

    26 March, Sunday

    Time Temperature Precipitation Wind Pressure Humidity
    00:00 +23°C° 0.2 mm 6 mps 755 mmHg 64%
    01:00 +22°C° 0.2 mm 5 mps 755 mmHg 68%
    02:00 +22°C° 0.2 mm 5 mps 755 mmHg 71%
    03:00 +21°C° 0.4 mm 5 mps 754 mmHg 76%
    04:00 +20°C° 0.4 mm 4 mps 754 mmHg 80%
    05:00 +20°C° 0.4 mm 4 mps 754 mmHg 84%
    06:00 +20°C° 0.2 mm 4 mps 754 mmHg 84%
    07:00 +20°C° 0.2 mm 4 mps 754 mmHg 84%
    08:00 +20°C° 0.2 mm 4 mps 754 mmHg 84%
    09:00 +21°C° 0 mm 4 mps 754 mmHg 76%
    10:00 +24°C° 0 mm 3 mps 753 mmHg 68%
    11:00 +25°C° 0 mm 2 mps 753 mmHg 61%
    12:00 +26°C° 0.1 mm 3 mps 753 mmHg 52%
    13:00 +27°C° 0.1 mm 3 mps 753 mmHg 43%
    14:00 +27°C° 0.1 mm 4 mps 753 mmHg 34%
    15:00 +28°C° 0 mm 4 mps 753 mmHg 31%
    16:00 +28°C° 0 mm 5 mps 753 mmHg 29%
    17:00 +28°C° 0 mm 5 mps 752 mmHg 26%
    18:00 +26°C° 0 mm 5 mps 753 mmHg 34%
    19:00 +23°C° 0 mm 5 mps 754 mmHg 42%
    20:00 +21°C° 0 mm 5 mps 755 mmHg 49%
    21:00 +20°C° 0 mm 5 mps 755 mmHg 49%
    22:00 +19°C° 0 mm 6 mps 756 mmHg 48%
    23:00 +19°C° 0 mm 6 mps 756 mmHg 47%

    27 March, Monday

    Time Temperature Precipitation Wind Pressure Humidity
    00:00 +17°C° 0 mm 6 mps 757 mmHg 49%
    01:00 +17°C° 0 mm 5 mps 757 mmHg 52%
    02:00 +16°C° 0 mm 5 mps 757 mmHg 55%
    03:00 +16°C° 0 mm 5 mps 758 mmHg 58%
    04:00 +15°C° 0 mm 5 mps 758 mmHg 62%
    05:00 +15°C° 0 mm 5 mps 759 mmHg 65%
    06:00 +15°C° 0 mm 4 mps 759 mmHg 65%
    07:00 +15°C° 0 mm 4 mps 760 mmHg 65%
    08:00 +17°C° 0 mm 4 mps 760 mmHg 65%
    09:00 +18°C° 0 mm 4 mps 761 mmHg 56%
    10:00 +20°C° 0 mm 4 mps 761 mmHg 48%
    11:00 +22°C° 0 mm 3 mps 761 mmHg 39%
    12:00 +24°C° 0 mm 3 mps 761 mmHg 36%
    13:00 +25°C° 0 mm 3 mps 761 mmHg 33%
    14:00 +26°C° 0 mm 3 mps 761 mmHg 29%
    15:00 +25°C° 0 mm 3 mps 761 mmHg 33%
    16:00 +25°C° 0 mm 4 mps 761 mmHg 36%
    17:00 +23°C° 0 mm 4 mps 762 mmHg 39%
    18:00 +22°C° 0 mm 4 mps 762 mmHg 48%
    19:00 +20°C° 0 mm 4 mps 763 mmHg 57%
    20:00 +19°C° 0 mm 4 mps 764 mmHg 67%
    21:00 +18°C° 0 mm 4 mps 764 mmHg 70%
    22:00 +18°C° 0 mm 3 mps 764 mmHg 73%
    23:00 +18°C° 0 mm 3 mps 764 mmHg 76%

    28 March, Tuesday

    Time Temperature Precipitation Wind Pressure Humidity
    00:00 +17°C° 0 mm 4 mps 764 mmHg 78%
    01:00 +17°C° 0 mm 4 mps 764 mmHg 80%
    02:00 +17°C° 0 mm 4 mps 764 mmHg 83%
    03:00 +15°C° 0 mm 5 mps 765 mmHg 84%
    04:00 +15°C° 0 mm 5 mps 765 mmHg 85%
    05:00 +15°C° 0 mm 5 mps 765 mmHg 86%
    06:00 +15°C° 0 mm 5 mps 765 mmHg 84%
    07:00 +16°C° 0 mm 5 mps 765 mmHg 83%
    08:00 +16°C° 0 mm 5 mps 766 mmHg 82%
    09:00 +17°C° 0 mm 6 mps 766 mmHg 76%
    10:00 +19°C° 0 mm 6 mps 766 mmHg 70%
    11:00 +21°C° 0 mm 6 mps 766 mmHg 64%
    12:00 +21°C° 0 mm 6 mps 765 mmHg 61%
    13:00 +21°C° 0 mm 6 mps 765 mmHg 58%
    14:00 +22°C° 0 mm 6 mps 764 mmHg 55%
    15:00 +22°C° 0 mm 6 mps 764 mmHg 58%
    16:00 +21°C° 0 mm 6 mps 764 mmHg 61%
    17:00 +21°C° 0 mm 7 mps 764 mmHg 63%
    18:00 +20°C° 0 mm 7 mps 764 mmHg 67%
    19:00 +20°C° 0 mm 7 mps 763 mmHg 70%
    20:00 +18°C° 0 mm 7 mps 763 mmHg 73%
    21:00 +18°C° 0.2 mm 7 mps 763 mmHg 76%
    22:00 +18°C° 0.2 mm 7 mps 762 mmHg 78%
    23:00 +18°C° 0.2 mm 7 mps 762 mmHg 80%
    Show more